Regional Weather Roundup
Issued by NWS

Home | Current Version | Previous Version | Text Only | Print | Product List | Glossary Off
Versions: 1 2 3 4 5 6 7 8 9 10 11 12 13 14 15 16 17 18 19 20 21 22 23 24 25 26 27 28 29 30 31 32 33 34 35 36 37 38 39 40 41 42 43 44 45 46 47 48 49 50

000
ASUS43 KIND 270509
RWRIN

WEATHER ROUNDUP FOR INDIANA
NATIONAL WEATHER SERVICE INDIANAPOLIS IN
100 AM EDT WED AUG 27 2014

NOTE: "FAIR" INDICATES FEW OR NO CLOUDS BELOW 12,000 FEET WITH NO
SIGNIFICANT WEATHER AND/OR OBSTRUCTIONS TO VISIBILITY.

* - STATION DOES NOT REPORT WEATHER SUCH AS PRECIPITATION OR FOG.

+ - STATION NOT QUALITY CONTROLLED BY THE NATIONAL WEATHER SERVICE.
    USE DATA WITH CAUTION...ESPECIALLY DEWPOINT AND RELATIVE
    HUMIDITY OBSERVATIONS.

INZ001>003-010>013-019-020-270600-
NORTHWEST INDIANA

CITY           SKY/WX    TMP DP  RH WIND       PRES   REMARKS
GARY /AIRPORT/ PTCLDY    71  69  93 N3        30.11S
KNOX *+        CLOUDY    68  66  93 N3        30.10S VSB<1/4
LA PORTE +     PTCLDY    67  67 100 CALM      30.12R FOG
MICHIGAN CITY+ PTCLDY    64  64 100 CALM      30.12S FOG
MONTICELLO +   CLOUDY    70  69  98 CALM      30.09S
RENSSELAER +   MOCLDY    70  70 100 CALM      30.10S FOG
VALPARAISO     CLOUDY    69  67  93 CALM      30.12R FOG

$$

LMZ046-743>745-270600-
SOUTHERN LAKE MICHIGAN

STATION/POSITION TIME  TEMP WIND        PRES
                       AIR  DIR/SP/G
                 (UTC) (F)  (DEG/KT/KT) (MB)
MICHIGAN CITY    0500   69   60/  3/  3   N/A

$$

INZ004-005-014>016-021>024-270600-
NORTH CENTRAL INDIANA

CITY           SKY/WX    TMP DP  RH WIND       PRES   REMARKS
GOSHEN         CLOUDY    72  69  90 W3        30.11R FOG
LOGANSPORT +   CLOUDY    68  66  94 SW3       30.10S FOG
PERU/GRISSOM   CLOUDY    70 N/A N/A S6        30.09S
ROCHESTER +    MOCLDY    70  70 100 CALM      30.10S FOG
SOUTH BEND     PTCLDY    67  64  90 N5        30.12R FOG
WARSAW +       MOCLDY    66  66 100 CALM      30.11R FOG

$$

INZ006>009-017-018-025>027-270600-
NORTHEAST INDIANA

CITY           SKY/WX    TMP DP  RH WIND       PRES   REMARKS
ANGOLA *+      CLOUDY    72  63  73 CALM      30.11R
AUBURN +       CLEAR     68  64  88 W3        30.10S
FORT WAYNE     PTCLDY    69  67  93 S3        30.10R
HUNTINGTON +   MOCLDY    69  68  98 S3        30.09S

$$

INZ028-029-035-036-043>045-051>053-270600-
WEST CENTRAL INDIANA

CITY           SKY/WX    TMP DP  RH WIND       PRES   REMARKS
GREENCASTLE +  CLOUDY    70  70 100 CALM      30.11R
LAFAYETTE      CLOUDY    69  68  96 CALM      30.08F
TERRE HAUTE    CLOUDY    71  69  93 CALM      30.10R

$$

INZ030>032-037>040-046>048-054>057-064-065-270600-
CENTRAL INDIANA

CITY           SKY/WX    TMP DP  RH WIND       PRES   REMARKS
CP ATTERBURY + MOCLDY    68  66  94 CALM      30.10S FOG
FRANKFORT +    CLOUDY   N/A N/A N/A CALM      30.11F HAZE
GREENWOOD *+   MOCLDY    72  70  94 CALM      30.10S
INDIANAPOLIS   CLOUDY    73  69  87 NW3       30.09R
-EAGLE CREEK   CLOUDY    74  70  87 NW5       30.10R
KOKOMO *+      CLOUDY    68  66  94 S5        30.10S
MARION +       MOCLDY    68  67  98 CALM      30.11S FOG
MT COMFORT *+  MOCLDY    68 N/A N/A E3        30.11R
SHELBYVILLE    MOCLDY    70  67  90 CALM      30.09S
ZIONSVILLE +   CLOUDY    70  66  89 NW3       30.11S

$$

INZ033-034-041-042-049-050-058-059-270600-
EAST CENTRAL INDIANA

CITY           SKY/WX    TMP DP  RH WIND       PRES   REMARKS
MUNCIE         MOCLDY    71  68  90 CALM      30.11S

$$

INZ060-061-067>069-081>083-085>088-270600-
SOUTHWEST INDIANA

CITY           SKY/WX    TMP DP  RH WIND       PRES   REMARKS
EVANSVILLE     CLEAR     78  72  81 CALM      30.08R
WASHINGTON +   MOCLDY    72  72 100 CALM      30.08R

$$

INZ062-063-066-070>080-084-089>092-270600-
SOUTH CENTRAL AND SOUTHEAST INDIANA

CITY           SKY/WX    TMP DP  RH WIND       PRES   REMARKS
BLOOMINGTON    MOCLDY    70  68  93 CALM      30.10R
SEYMOUR +      PTCLDY    70  64  83 CALM      30.09  HAZE

$$




USA.gov is the U.S. government's official web portal to all federal, state and local government web resources and services.